| time (UTC) | temp F | wind direction | speed MPH | gust MPH | rain 1hr in | rain 24hr in | rain mn in | humidity % | barometer mb |
| 20260506133021 | 73 | 230 | 14.0 | 25.0 | 0.00 | 0.00 | 0.00 | 70 | 1015.2 |
| 20260506131519 | 72 | 220 | 8.0 | 16.0 | 0.00 | 0.00 | 0.00 | 74 | 1015.3 |
| 20260506130017 | 71 | 233 | 9.0 | 20.0 | 0.00 | 0.00 | 0.00 | 75 | 1015.3 |
| 20260506124513 | 70 | 220 | 9.0 | 15.0 | 0.00 | 0.00 | 0.00 | 79 | 1015.6 |
| 20260506123006 | 68 | 205 | 6.0 | 13.0 | 0.00 | 0.00 | 0.00 | 81 | 1015.4 |
| 20260506121507 | 68 | 228 | 6.0 | 13.0 | 0.00 | 0.00 | 0.00 | 82 | 1015.4 |
| 20260506120004 | 67 | 205 | 5.0 | 12.0 | 0.00 | 0.00 | 0.00 | 83 | 1015.7 |
| 20260506114601 | 66 | 222 | 7.0 | 13.0 | 0.00 | 0.00 | 0.00 | 84 | 1015.9 |
| 20260506113058 | 65 | 218 | 3.0 | 9.0 | 0.00 | 0.00 | 0.00 | 85 | 1015.4 |
| 20260506111612 | 64 | 210 | 1.0 | 6.0 | 0.00 | 0.00 | 0.00 | 87 | 1015.5 |
| 20260506110056 | 62 | 174 | 0.0 | 3.0 | 0.00 | 0.00 | 0.00 | 90 | 1015.6 |
| 20260506104603 | 61 | 176 | 0.0 | 2.0 | 0.00 | 0.00 | 0.00 | 90 | 1015.7 |
| 20260506103104 | 61 | 212 | 0.0 | 3.0 | 0.00 | 0.00 | 0.00 | 90 | 1015.5 |
| 20260506101554 | 60 | 197 | 0.0 | 2.0 | 0.00 | 0.00 | 0.00 | 90 | 1015.3 |
| 20260506100053 | 60 | 153 | 0.0 | 3.0 | 0.00 | 0.00 | 0.00 | 87 | 1015.2 |
| 20260506094550 | 61 | 154 | 0.0 | 1.0 | 0.00 | 0.00 | 0.00 | 86 | 1015.4 |
| 20260506093052 | 63 | 154 | 0.0 | 2.0 | 0.00 | 0.00 | 0.00 | 86 | 1015.5 |
| 20260506091544 | 63 | 152 | 0.0 | 4.0 | 0.00 | 0.00 | 0.00 | 85 | 1015.5 |
| 20260506090044 | 63 | 210 | 1.0 | 7.0 | 0.00 | 0.00 | 0.00 | 84 | 1015.7 |
| 20260506084543 | 63 | 218 | 1.0 | 5.0 | 0.00 | 0.00 | 0.00 | 85 | 1015.5 |
| 20260506083055 | 64 | 211 | 1.0 | 5.0 | 0.00 | 0.00 | 0.00 | 84 | 1015.5 |
| 20260506081547 | 64 | 216 | 3.0 | 11.0 | 0.00 | 0.00 | 0.00 | 84 | 1015.5 |
| 20260506073041 | 64 | 207 | 4.0 | 9.0 | 0.00 | 0.00 | 0.00 | 82 | 1015.5 |
| 20260506071538 | 64 | 220 | 2.0 | 5.0 | 0.00 | 0.00 | 0.00 | 84 | 1015.4 |
| 20260506061537 | 65 | 196 | 1.0 | 7.0 | 0.00 | 0.00 | 0.00 | 82 | 1016.0 |
| 20260506044523 | 66 | 194 | 4.0 | 11.0 | 0.00 | 0.00 | 0.00 | 81 | 1016.6 |
| 20260506043018 | 65 | 161 | 6.0 | 11.0 | 0.00 | 0.00 | 0.00 | 82 | 1016.8 |
| 20260506041516 | 65 | 232 | 5.0 | 9.0 | 0.00 | 0.00 | 0.00 | 82 | 1016.8 |
| 20260506040016 | 65 | 226 | 6.0 | 10.0 | 0.00 | 0.00 | 0.00 | 82 | 1016.9 |
| 20260506034512 | 65 | 229 | 3.0 | 9.0 | 0.00 | 0.00 | 0.00 | 81 | 1016.8 |
| 20260506033015 | 66 | 185 | 4.0 | 9.0 | 0.00 | 0.00 | 0.00 | 80 | 1016.9 |
| 20260506031511 | 66 | 222 | 3.0 | 9.0 | 0.00 | 0.00 | 0.00 | 81 | 1016.9 |
| 20260506030012 | 66 | 204 | 2.0 | 8.0 | 0.00 | 0.00 | 0.00 | 81 | 1017.0 |
| 20260506024525 | 66 | 199 | 4.0 | 10.0 | 0.00 | 0.00 | 0.00 | 81 | 1017.1 |
| 20260506023010 | 66 | 223 | 4.0 | 10.0 | 0.00 | 0.00 | 0.00 | 80 | 1017.0 |
| 20260506021511 | 66 | 208 | 4.0 | 9.0 | 0.00 | 0.00 | 0.00 | 79 | 1017.0 |
| 20260506020009 | 67 | 216 | 1.0 | 8.0 | 0.00 | 0.00 | 0.00 | 75 | 1016.7 |
| 20260506014513 | 67 | 139 | 2.0 | 8.0 | 0.00 | 0.00 | 0.00 | 72 | 1016.6 |
| 20260506013008 | 68 | 231 | 2.0 | 8.0 | 0.00 | 0.00 | 0.00 | 71 | 1016.7 |
| 20260506011511 | 68 | 171 | 2.0 | 8.0 | 0.00 | 0.00 | 0.00 | 71 | 1016.6 |
| 20260506010007 | 69 | 216 | 3.0 | 9.0 | 0.00 | 0.00 | 0.00 | 70 | 1016.5 |
| 20260506004507 | 69 | 193 | 4.0 | 14.0 | 0.00 | 0.00 | 0.00 | 68 | 1016.4 |
| 20260506003008 | 69 | 233 | 6.0 | 15.0 | 0.00 | 0.00 | 0.00 | 67 | 1016.3 |
| 20260506001506 | 70 | 209 | 6.0 | 15.0 | 0.00 | 0.00 | 0.00 | 65 | 1016.1 |
| 20260506000005 | 71 | 181 | 8.0 | 15.0 | 0.00 | 0.00 | 0.00 | 64 | 1016.0 |
| 20260505234508 | 71 | 227 | 7.0 | 16.0 | 0.00 | 0.00 | 0.00 | 63 | 1015.7 |
| 20260505233005 | 72 | 111 | 7.0 | 18.0 | 0.00 | 0.00 | 0.00 | 62 | 1015.7 |
| 20260505231506 | 72 | 190 | 11.0 | 18.0 | 0.00 | 0.00 | 0.00 | 60 | 1015.5 |
| 20260505230008 | 73 | 201 | 9.0 | 18.0 | 0.00 | 0.00 | 0.00 | 58 | 1015.5 |
| 20260505224503 | 74 | 235 | 10.0 | 18.0 | 0.00 | 0.00 | 0.00 | 59 | 1015.6 |
| 20260505223003 | 74 | 226 | 9.0 | 18.0 | 0.00 | 0.00 | 0.00 | 58 | 1015.6 |
| 20260505221502 | 75 | 213 | 9.0 | 18.0 | 0.00 | 0.00 | 0.00 | 58 | 1015.8 |
| 20260505220001 | 74 | 216 | 5.0 | 14.0 | 0.00 | 0.00 | 0.00 | 58 | 1015.7 |
| 20260505214501 | 74 | 125 | 5.0 | 12.0 | 0.00 | 0.00 | 0.00 | 59 | 1015.5 |
| 20260505213000 | 75 | 252 | 5.0 | 21.0 | 0.00 | 0.00 | 0.00 | 56 | 1015.5 |
| 20260505211600 | 76 | 224 | 11.0 | 17.0 | 0.00 | 0.00 | 0.00 | 55 | 1015.5 |
| 20260505210059 | 77 | 205 | 5.0 | 19.0 | 0.00 | 0.00 | 0.00 | 54 | 1015.3 |
| 20260505204602 | 78 | 203 | 5.0 | 17.0 | 0.00 | 0.00 | 0.00 | 55 | 1015.4 |
| 20260505203103 | 78 | 222 | 6.0 | 16.0 | 0.00 | 0.00 | 0.00 | 56 | 1015.4 |
| 20260505201556 | 78 | 208 | 9.0 | 18.0 | 0.00 | 0.00 | 0.00 | 55 | 1015.5 |
| 20260505200054 | 79 | 204 | 5.0 | 18.0 | 0.00 | 0.00 | 0.00 | 54 | 1015.8 |
| 20260505194609 | 78 | 221 | 6.0 | 21.0 | 0.00 | 0.00 | 0.00 | 54 | 1016.0 |
| 20260505193052 | 78 | 218 | 6.0 | 17.0 | 0.00 | 0.00 | 0.00 | 55 | 1016.1 |
| 20260505191605 | 78 | 152 | 11.0 | 20.0 | 0.00 | 0.00 | 0.00 | 52 | 1016.3 |
| 20260505190053 | 78 | 205 | 11.0 | 22.0 | 0.00 | 0.00 | 0.00 | 52 | 1016.5 |
| 20260505184550 | 78 | 227 | 7.0 | 17.0 | 0.00 | 0.00 | 0.00 | 52 | 1016.5 |
| 20260505183051 | 79 | 195 | 8.0 | 16.0 | 0.00 | 0.00 | 0.00 | 47 | 1016.6 |
| 20260505181548 | 79 | 46 | 6.0 | 17.0 | 0.00 | 0.00 | 0.00 | 48 | 1016.7 |
| 20260505180054 | 78 | 200 | 14.0 | 21.0 | 0.00 | 0.00 | 0.00 | 46 | 1016.8 |
| 20260505174545 | 78 | 214 | 9.0 | 18.0 | 0.00 | 0.00 | 0.00 | 50 | 1016.8 |
| 20260505173048 | 78 | 218 | 10.0 | 15.0 | 0.00 | 0.00 | 0.00 | 49 | 1016.9 |
| 20260505171547 | 77 | 191 | 5.0 | 15.0 | 0.00 | 0.00 | 0.00 | 50 | 1017.1 |
| 20260505170041 | 77 | 187 | 12.0 | 19.0 | 0.00 | 0.00 | 0.00 | 48 | 1017.3 |
| 20260505164538 | 76 | 170 | 8.0 | 18.0 | 0.00 | 0.00 | 0.00 | 51 | 1017.5 |
| 20260505163036 | 76 | 225 | 10.0 | 16.0 | 0.00 | 0.00 | 0.00 | 52 | 1017.4 |
| 20260505161535 | 75 | 218 | 7.0 | 20.0 | 0.00 | 0.00 | 0.00 | 52 | 1017.6 |
| 20260505153030 | 74 | 232 | 11.0 | 17.0 | 0.00 | 0.00 | 0.00 | 53 | 1017.8 |
| 20260505151532 | 74 | 221 | 10.0 | 17.0 | 0.00 | 0.00 | 0.00 | 54 | 1017.8 |